Weather reports worldwide

Advertisment
Marrakech, Morocco (60230): temperature & dewpoint: 19.09.2017 10:00:00 - 25.09.2017 10:00:00 (WEST)Marrakech, Morocco (60230): wind speed: 19.09.2017 10:00:00 - 25.09.2017 10:00:00 (WEST)Marrakech, Morocco (60230): wind direction: 19.09.2017 10:00:00 - 25.09.2017 10:00:00 (WEST)Marrakech, Morocco (60230): reduced air pressure: 19.09.2017 10:00:00 - 25.09.2017 10:00:00 (WEST)Marrakech, Morocco (60230): visibility: 19.09.2017 10:00:00 - 25.09.2017 10:00:00 (WEST)
Date & Time tt [°C] td [°C] ff [km/h] ff [kn] dd ppp [hPa] vv [km]
25.09.2017 10:00:00 - - - - - - -
25.09.2017 09:00:00 25,0 8,0 5 3 NNE - 5
25.09.2017 08:00:00 22,0 7,0 8 4 ENE - 6
25.09.2017 07:00:00 24,0 5,0 5 3 E - 7
25.09.2017 06:00:00 24,0 5,0 4 2 E - 7
25.09.2017 05:00:00 24,0 5,0 0 0 N - 8
25.09.2017 04:00:00 24,8 4,0 0 0 N 1016,9 10
25.09.2017 03:00:00 25,0 4,0 5 3 E - 10
25.09.2017 02:00:00 26,0 3,0 5 3 E - 10
25.09.2017 01:00:00 27,5 2,6 4 2 ESE 1017,8 10
25.09.2017 00:00:00 28,0 4,0 8 4 NE - 10
24.09.2017 23:00:00 30,0 3,0 2 1 - - 10
24.09.2017 22:00:00 31,1 3,2 8 4 N 1017,3 10
24.09.2017 21:00:00 32,0 2,0 9 5 N - 10
24.09.2017 20:00:00 33,0 2,0 9 5 NNW - 6
24.09.2017 19:00:00 34,6 1,1 15 8 NW 1014,5 6
24.09.2017 18:00:00 36,0 1,0 24 13 WNW - 5
24.09.2017 17:00:00 37,0 0,0 18 10 WNW - 4,0
24.09.2017 16:00:00 37,4 0,7 22 12 WNW 1013,5 4,0
24.09.2017 15:00:00 37,0 0,0 18 10 WNW - 4,0
24.09.2017 14:00:00 37,0 1,0 18 10 W - 4,0
24.09.2017 13:00:00 35,7 3,0 8 4 WNW 1014,9 4,0
24.09.2017 12:00:00 34,0 4,0 4 2 - - 8
24.09.2017 11:00:00 31,0 6,0 8 4 ENE - 10
24.09.2017 10:00:00 27,9 7,2 5 3 NE 1016,3 10
24.09.2017 09:00:00 25,0 7,0 5 3 E - 10
24.09.2017 08:00:00 23,0 9,0 4 2 ENE - 8
24.09.2017 07:00:00 22,7 10,2 8 4 ENE 1016,0 10
24.09.2017 06:00:00 23,0 10,0 8 4 ENE - 10
24.09.2017 05:00:00 24,0 10,0 9 5 E - 10
24.09.2017 04:00:00 23,9 10,6 9 5 E 1015,4 10
24.09.2017 03:00:00 25,0 11,0 11 6 E - 10
24.09.2017 02:00:00 25,0 10,0 8 4 ENE - 10
24.09.2017 01:00:00 25,6 9,8 8 4 ENE 1015,9 10
24.09.2017 00:00:00 27,0 10,0 8 4 ENE - 10
23.09.2017 23:00:00 28,0 9,0 9 5 NNE - 10
23.09.2017 22:00:00 28,5 9,2 9 5 ENE 1015,5 10
23.09.2017 21:00:00 30,0 8,0 11 6 N - 10
23.09.2017 20:00:00 32,0 6,0 13 7 NNW - 10
23.09.2017 19:00:00 33,3 4,1 16 9 NNW 1012,5 10
23.09.2017 18:00:00 35,0 2,0 13 7 NW - 10
23.09.2017 17:00:00 35,0 1,0 13 7 NNW - 10
23.09.2017 16:00:00 36,1 2,2 15 8 NW 1011,3 10
23.09.2017 15:00:00 35,0 3,0 18 10 NW - 10
23.09.2017 14:00:00 33,0 6,0 9 5 NW - 10
23.09.2017 13:00:00 30,6 8,9 8 4 NW 1013,2 10
23.09.2017 12:00:00 28,0 9,0 4 2 - - 10
23.09.2017 11:00:00 26,0 11,0 5 3 WNW - 10
23.09.2017 10:00:00 22,9 11,6 5 3 SW 1014,4 10
23.09.2017 09:00:00 20,0 12,0 8 4 SW - 10
23.09.2017 08:00:00 19,0 11,0 5 3 WSW - 10
23.09.2017 07:00:00 18,7 10,0 5 3 W 1013,6 10
23.09.2017 06:00:00 19,0 10,0 5 3 SW - 10
23.09.2017 05:00:00 20,0 10,0 5 3 SW - 10
23.09.2017 04:00:00 20,3 10,1 4 2 W 1012,9 10
23.09.2017 03:00:00 - - - - - - -
23.09.2017 02:00:00 23,0 9,0 5 3 ENE - 10
23.09.2017 01:00:00 24,2 9,8 8 4 N 1013,1 10
23.09.2017 00:00:00 24,0 9,0 5 3 ENE - 10
22.09.2017 23:00:00 26,0 9,0 13 7 NE - 10
22.09.2017 22:00:00 27,1 8,0 8 4 N 1012,4 10
22.09.2017 21:00:00 29,0 8,0 15 8 N - 10
22.09.2017 20:00:00 31,0 5,0 11 6 N - 10
22.09.2017 19:00:00 32,2 4,1 5 3 NNE 1009,9 10
22.09.2017 18:00:00 33,0 4,0 5 3 WNW - 10
22.09.2017 17:00:00 33,0 4,0 8 4 - - 10
22.09.2017 16:00:00 32,6 4,4 8 4 NW 1009,8 10
22.09.2017 15:00:00 31,0 6,0 5 3 WNW - 10
22.09.2017 14:00:00 29,0 7,0 9 5 WNW - 10
22.09.2017 13:00:00 27,5 7,4 8 4 NNW 1012,5 10
22.09.2017 12:00:00 26,0 9,0 5 3 WNW - 10
22.09.2017 11:00:00 24,0 11,0 4 2 - - 10
22.09.2017 10:00:00 21,3 11,9 5 3 NW 1014,8 10
22.09.2017 09:00:00 19,0 12,0 9 5 WNW - 10
22.09.2017 08:00:00 18,0 12,0 5 3 WSW - 10
22.09.2017 07:00:00 18,3 11,6 8 4 SSW 1014,1 10
22.09.2017 06:00:00 18,0 12,0 5 3 WSW - 10
22.09.2017 05:00:00 20,0 12,0 5 3 NNE - 10
22.09.2017 04:00:00 20,3 11,8 8 4 N 1013,5 10
22.09.2017 03:00:00 21,0 11,0 8 4 NNE - 10
22.09.2017 02:00:00 22,0 10,0 8 4 ENE - 10
22.09.2017 01:00:00 22,0 10,2 8 4 ENE 1014,4 10
22.09.2017 00:00:00 23,0 10,0 8 4 N - 10
21.09.2017 23:00:00 23,0 10,0 11 6 NNE - 10
21.09.2017 22:00:00 24,1 9,3 16 9 NNE 1014,1 10
21.09.2017 21:00:00 26,0 9,0 15 8 NNW - 10
21.09.2017 20:00:00 27,0 7,0 13 7 SW - 8
21.09.2017 19:00:00 28,5 5,4 9 5 WNW 1012,2 10
21.09.2017 18:00:00 29,0 6,0 8 4 W - 10
21.09.2017 17:00:00 30,0 6,0 11 6 W - 10
21.09.2017 16:00:00 28,6 6,7 5 3 - 1011,9 10
21.09.2017 15:00:00 27,0 8,0 8 4 - - 10
21.09.2017 14:00:00 25,0 11,0 8 4 - - 10
21.09.2017 13:00:00 23,3 11,7 8 4 W 1014,8 8
21.09.2017 12:00:00 22,0 12,0 9 5 WNW - 8
21.09.2017 11:00:00 20,0 13,0 9 5 W - 8
21.09.2017 10:00:00 17,7 12,8 11 6 SW 1016,4 8
21.09.2017 09:00:00 16,0 13,0 13 7 WSW - 5
21.09.2017 08:00:00 16,0 14,0 13 7 SW - 4,0
21.09.2017 07:00:00 16,0 13,3 13 7 WSW 1015,5 5
21.09.2017 06:00:00 16,0 12,0 13 7 SW - 7
21.09.2017 05:00:00 17,0 12,0 13 7 SW - 10
21.09.2017 04:00:00 17,0 11,7 9 5 SW 1014,6 10
21.09.2017 03:00:00 17,0 11,0 11 6 SW - 10
21.09.2017 02:00:00 18,0 12,0 11 6 SW - 10
21.09.2017 01:00:00 19,2 11,3 13 7 SW 1015,2 10
21.09.2017 00:00:00 21,0 11,0 11 6 SW - 10
20.09.2017 23:00:00 23,0 10,0 9 5 SW - 10
20.09.2017 22:00:00 24,4 8,8 11 6 NE 1014,6 10
20.09.2017 21:00:00 26,0 8,0 13 7 NNW - 10
20.09.2017 20:00:00 30,0 4,0 9 5 WNW - 10
20.09.2017 19:00:00 30,8 0,2 9 5 WNW 1012,2 10
20.09.2017 18:00:00 32,0 -1,0 11 6 W - 10
20.09.2017 17:00:00 32,0 0,0 11 6 SW - 10
20.09.2017 16:00:00 32,2 1,3 4 2 - 1012,0 10
20.09.2017 15:00:00 30,0 2,0 8 4 NNW - 10
20.09.2017 14:00:00 29,0 6,0 9 5 NW - 10
20.09.2017 13:00:00 26,6 8,1 9 5 WNW 1015,4 10
20.09.2017 12:00:00 24,0 9,0 13 7 W - 10
20.09.2017 11:00:00 23,0 10,0 9 5 WNW - 10
20.09.2017 10:00:00 20,0 10,7 5 3 W 1017,3 9
20.09.2017 09:00:00 17,0 11,0 5 3 W - 10
20.09.2017 08:00:00 16,0 10,0 5 3 WSW - 10
20.09.2017 07:00:00 16,0 8,7 8 4 W 1017,8 8
20.09.2017 06:00:00 16,0 9,0 8 4 WSW - 10
20.09.2017 05:00:00 17,0 8,0 11 6 SW - 10
20.09.2017 04:00:00 18,1 6,6 11 6 WSW 1017,3 10
20.09.2017 03:00:00 19,0 7,0 8 4 WSW - 10
20.09.2017 02:00:00 - - - - - - -
20.09.2017 01:00:00 22,4 6,6 5 3 NNE 1017,6 10
20.09.2017 00:00:00 24,0 6,0 5 3 E - 10
19.09.2017 23:00:00 24,0 5,0 8 4 NE - 10
19.09.2017 22:00:00 25,3 4,4 13 7 NNE 1017,6 10
19.09.2017 21:00:00 27,0 5,0 21 11 N - 10
19.09.2017 20:00:00 29,0 5,0 18 10 N - 10
19.09.2017 19:00:00 32,2 -6,2 9 5 NNE 1015,0 10
19.09.2017 18:00:00 33,0 -4,0 9 5 NW - 10
19.09.2017 17:00:00 33,0 -3,0 9 5 NNW - 10
19.09.2017 16:00:00 32,1 -2,0 11 6 N 1015,3 10
19.09.2017 15:00:00 32,0 1,0 8 4 - - 10
19.09.2017 14:00:00 29,0 2,0 9 5 NNW - 10
19.09.2017 13:00:00 27,5 4,0 9 5 WNW 1018,4 10
19.09.2017 12:00:00 26,0 5,0 8 4 NNW - 10
19.09.2017 11:00:00 24,0 6,0 5 3 NW - 10
19.09.2017 10:00:00 21,5 6,6 5 3 W 1019,8 10

tt = temperature
td = dewpoint
ff = wind speed
dd = wind direction
ppp = reduced air pressure
vv = visibility

Next stations